When you browse on this site, cookies collect data to enhance your experience and personalize the content and advertising you see.
Visit our Privacy Policy to learn more. By continuing to use the site, you agree to this use of cookies and data.
  • In Denmark
  • List of Countries
  • For 7 days
  • Water Temperature
  • Satellite Maps
  • Weather Map
  • Weather Widgets
  • user-avatar
    Login

    Hourly Weather Astafevo

    Today, 21 July, Sunday

    Time Temperature Precipitation Wind Pressure Humidity
    00:00 +14°C° 0 mm 2 mps 744 mmHg 87%
    01:00 +13°C° 0 mm 2 mps 744 mmHg 87%
    02:00 +13°C° 0 mm 2 mps 744 mmHg 88%
    03:00 +13°C° 0 mm 2 mps 744 mmHg 88%
    04:00 +13°C° 0 mm 2 mps 745 mmHg 88%
    05:00 +14°C° 0 mm 2 mps 745 mmHg 88%
    06:00 +16°C° 0 mm 2 mps 745 mmHg 83%
    07:00 +18°C° 0 mm 2 mps 745 mmHg 78%
    08:00 +20°C° 0 mm 3 mps 745 mmHg 73%
    09:00 +21°C° 0 mm 3 mps 745 mmHg 69%
    10:00 +22°C° 0 mm 3 mps 745 mmHg 64%
    11:00 +24°C° 0 mm 3 mps 745 mmHg 59%
    12:00 +24°C° 0.3 mm 3 mps 745 mmHg 61%
    13:00 +24°C° 0.3 mm 3 mps 744 mmHg 62%
    14:00 +24°C° 0.3 mm 3 mps 744 mmHg 64%
    15:00 +24°C° 0.8 mm 3 mps 744 mmHg 69%
    16:00 +22°C° 0.8 mm 3 mps 744 mmHg 73%
    17:00 +22°C° 0.8 mm 3 mps 744 mmHg 78%
    18:00 +20°C° 0.1 mm 3 mps 744 mmHg 82%
    19:00 +19°C° 0.1 mm 2 mps 744 mmHg 86%
    20:00 +17°C° 0.1 mm 2 mps 744 mmHg 90%
    21:00 +17°C° 0 mm 2 mps 744 mmHg 90%
    22:00 +16°C° 0 mm 2 mps 744 mmHg 91%
    23:00 +16°C° 0 mm 2 mps 744 mmHg 92%

    Tomorrow, 22 July, Monday

    Time Temperature Precipitation Wind Pressure Humidity
    00:00 +15°C° 0 mm 1 mps 744 mmHg 92%
    01:00 +15°C° 0 mm 1 mps 744 mmHg 93%
    02:00 +14°C° 0 mm 1 mps 744 mmHg 93%
    03:00 +15°C° 0 mm 1 mps 744 mmHg 93%
    04:00 +15°C° 0 mm 1 mps 744 mmHg 93%
    05:00 +15°C° 0 mm 1 mps 744 mmHg 93%
    06:00 +18°C° 0 mm 1 mps 744 mmHg 88%
    07:00 +20°C° 0 mm 1 mps 744 mmHg 83%
    08:00 +21°C° 0 mm 1 mps 744 mmHg 78%
    09:00 +22°C° 0 mm 1 mps 744 mmHg 72%
    10:00 +24°C° 0 mm 1 mps 744 mmHg 67%
    11:00 +25°C° 0 mm 2 mps 744 mmHg 62%
    12:00 +25°C° 0 mm 2 mps 744 mmHg 60%
    13:00 +26°C° 0 mm 2 mps 743 mmHg 58%
    14:00 +26°C° 0 mm 2 mps 743 mmHg 56%
    15:00 +26°C° 0 mm 2 mps 743 mmHg 60%
    16:00 +26°C° 0 mm 2 mps 742 mmHg 64%
    17:00 +25°C° 0 mm 2 mps 742 mmHg 68%
    18:00 +24°C° 0 mm 2 mps 742 mmHg 70%
    19:00 +21°C° 0 mm 2 mps 742 mmHg 73%
    20:00 +20°C° 0 mm 2 mps 741 mmHg 75%
    21:00 +19°C° 0.3 mm 2 mps 741 mmHg 79%
    22:00 +18°C° 0.3 mm 2 mps 741 mmHg 83%
    23:00 +18°C° 0.3 mm 2 mps 741 mmHg 87%

    Day after tomorrow, 23 July, Tuesday

    Time Temperature Precipitation Wind Pressure Humidity
    00:00 +17°C° 1.5 mm 2 mps 741 mmHg 90%
    01:00 +17°C° 1.5 mm 2 mps 740 mmHg 93%
    02:00 +17°C° 1.5 mm 2 mps 740 mmHg 97%
    03:00 +17°C° 1.3 mm 2 mps 739 mmHg 97%
    04:00 +17°C° 1.3 mm 2 mps 739 mmHg 98%
    05:00 +17°C° 1.3 mm 2 mps 739 mmHg 98%
    06:00 +17°C° 0.9 mm 2 mps 739 mmHg 97%
    07:00 +18°C° 0.9 mm 2 mps 739 mmHg 97%
    08:00 +18°C° 0.9 mm 2 mps 738 mmHg 96%
    09:00 +19°C° 0.4 mm 2 mps 738 mmHg 94%
    10:00 +19°C° 0.4 mm 2 mps 739 mmHg 92%
    11:00 +20°C° 0.4 mm 2 mps 739 mmHg 89%
    12:00 +21°C° 0.6 mm 2 mps 739 mmHg 87%
    13:00 +23°C° 0.6 mm 2 mps 738 mmHg 84%
    14:00 +22°C° 0.6 mm 3 mps 738 mmHg 81%
    15:00 +22°C° 0.4 mm 3 mps 738 mmHg 82%
    16:00 +22°C° 0.4 mm 3 mps 739 mmHg 83%
    17:00 +22°C° 0.4 mm 3 mps 739 mmHg 84%
    18:00 +21°C° 0.2 mm 3 mps 739 mmHg 88%
    19:00 +19°C° 0.2 mm 3 mps 739 mmHg 92%
    20:00 +18°C° 0.2 mm 2 mps 739 mmHg 96%
    21:00 +18°C° 0 mm 2 mps 739 mmHg 96%
    22:00 +18°C° 0 mm 2 mps 739 mmHg 96%
    23:00 +17°C° 0 mm 2 mps 739 mmHg 97%

    24 July, Wednesday

    Time Temperature Precipitation Wind Pressure Humidity
    00:00 +17°C° 0 mm 3 mps 739 mmHg 97%
    01:00 +17°C° 0 mm 3 mps 739 mmHg 97%
    02:00 +17°C° 0 mm 3 mps 740 mmHg 97%
    03:00 +17°C° 0 mm 3 mps 740 mmHg 97%
    04:00 +17°C° 0 mm 3 mps 740 mmHg 97%
    05:00 +16°C° 0 mm 3 mps 740 mmHg 97%
    06:00 +17°C° 0 mm 3 mps 740 mmHg 96%
    07:00 +17°C° 0 mm 3 mps 740 mmHg 94%
    08:00 +17°C° 0 mm 3 mps 741 mmHg 93%
    09:00 +18°C° 0.1 mm 3 mps 741 mmHg 91%
    10:00 +18°C° 0.1 mm 3 mps 741 mmHg 90%
    11:00 +19°C° 0.1 mm 3 mps 741 mmHg 88%
    12:00 +19°C° 0.1 mm 3 mps 741 mmHg 85%
    13:00 +20°C° 0.1 mm 3 mps 741 mmHg 83%
    14:00 +20°C° 0.1 mm 3 mps 741 mmHg 81%
    15:00 +21°C° 0 mm 3 mps 742 mmHg 79%
    16:00 +21°C° 0 mm 3 mps 742 mmHg 76%
    17:00 +21°C° 0 mm 3 mps 742 mmHg 74%
    18:00 +20°C° 0 mm 2 mps 742 mmHg 79%
    19:00 +19°C° 0 mm 1 mps 742 mmHg 84%
    20:00 +18°C° 0 mm 1 mps 742 mmHg 89%
    21:00 +16°C° 0 mm 1 mps 742 mmHg 90%
    22:00 +16°C° 0 mm 1 mps 742 mmHg 90%
    23:00 +15°C° 0 mm 1 mps 743 mmHg 91%

    25 July, Thursday

    Time Temperature Precipitation Wind Pressure Humidity
    00:00 +15°C° 0 mm 1 mps 743 mmHg 92%
    01:00 +15°C° 0 mm 1 mps 743 mmHg 93%
    02:00 +14°C° 0 mm 2 mps 742 mmHg 94%
    03:00 +15°C° 0 mm 2 mps 743 mmHg 93%
    04:00 +15°C° 0 mm 2 mps 743 mmHg 92%
    05:00 +15°C° 0 mm 2 mps 743 mmHg 92%
    06:00 +17°C° 0 mm 2 mps 743 mmHg 86%
    07:00 +19°C° 0 mm 2 mps 743 mmHg 80%
    08:00 +21°C° 0 mm 2 mps 743 mmHg 74%
    09:00 +22°C° 0 mm 3 mps 743 mmHg 69%
    10:00 +24°C° 0 mm 3 mps 743 mmHg 63%
    11:00 +25°C° 0 mm 3 mps 743 mmHg 57%
    12:00 +26°C° 0 mm 3 mps 743 mmHg 56%
    13:00 +26°C° 0 mm 3 mps 742 mmHg 55%
    14:00 +26°C° 0 mm 3 mps 742 mmHg 54%
    15:00 +26°C° 0.1 mm 3 mps 742 mmHg 59%
    16:00 +26°C° 0.1 mm 2 mps 742 mmHg 65%
    17:00 +25°C° 0.1 mm 2 mps 742 mmHg 70%
    18:00 +23°C° 0.1 mm 2 mps 742 mmHg 76%
    19:00 +20°C° 0.1 mm 2 mps 742 mmHg 83%
    20:00 +18°C° 0.1 mm 2 mps 741 mmHg 89%
    21:00 +18°C° 0 mm 2 mps 741 mmHg 90%
    22:00 +17°C° 0 mm 2 mps 741 mmHg 92%
    23:00 +17°C° 0 mm 2 mps 741 mmHg 93%

    26 July, Friday

    Time Temperature Precipitation Wind Pressure Humidity
    00:00 +16°C° 0 mm 2 mps 741 mmHg 93%
    01:00 +16°C° 0 mm 3 mps 741 mmHg 93%
    02:00 +14°C° 0 mm 3 mps 741 mmHg 92%
    03:00 +14°C° 0 mm 3 mps 741 mmHg 93%
    04:00 +13°C° 0 mm 3 mps 740 mmHg 93%
    05:00 +13°C° 0 mm 3 mps 740 mmHg 93%
    06:00 +14°C° 0 mm 3 mps 740 mmHg 88%
    07:00 +17°C° 0 mm 3 mps 740 mmHg 82%
    08:00 +19°C° 0 mm 3 mps 740 mmHg 77%
    09:00 +20°C° 0 mm 4 mps 740 mmHg 71%
    10:00 +21°C° 0 mm 4 mps 739 mmHg 65%
    11:00 +22°C° 0 mm 4 mps 739 mmHg 59%
    12:00 +22°C° 0.1 mm 4 mps 739 mmHg 59%
    13:00 +22°C° 0.1 mm 4 mps 738 mmHg 59%
    14:00 +23°C° 0.1 mm 5 mps 738 mmHg 59%
    15:00 +21°C° 0.3 mm 5 mps 738 mmHg 64%
    16:00 +20°C° 0.3 mm 5 mps 737 mmHg 70%
    17:00 +19°C° 0.3 mm 5 mps 737 mmHg 76%
    18:00 +18°C° 0.1 mm 4 mps 737 mmHg 81%
    19:00 +16°C° 0.1 mm 3 mps 737 mmHg 86%
    20:00 +14°C° 0.1 mm 3 mps 737 mmHg 91%
    21:00 +13°C° 0 mm 3 mps 736 mmHg 92%
    22:00 +12°C° 0 mm 3 mps 736 mmHg 94%
    23:00 +12°C° 0 mm 2 mps 736 mmHg 95%
    Show more